Location: Bijele Vode
(45.2833°N, 16.2000°E)
Time: 05:58:11
(UTC+00:00)

Cosmos 1125 Rocket - Pass Details

Date: 18 January 2021
Orbit: 757 x 781 km, 74.0° (Epoch: 05 March)

Event Time Altitude Azimuth Distance (km) Brightness Sun altitude
Rises 05:25:36 0° 344° (NNW) 3,261 6.4 -11.0°
Reaches altitude 10° 05:28:08 10° 352° (N) 2,333 5.7 -10.6°
Maximum altitude 05:33:06 40° 61° (ENE) 1,144 4.8 -9.8°
Drops below altitude 10° 05:38:04 10° 131° (SE) 2,329 7.3 -9.0°
Sets 05:40:35 0° 139° (SE) 3,254 8.0 -8.5°
